Weather reports worldwide

Advertisment
Santa Cruz de Tenerife, Spain (60020): temperature & dewpoint: 16.03.2019 17:00:00 - 22.03.2019 17:00:00 (WET)Santa Cruz de Tenerife, Spain (60020): wind speed: 16.03.2019 17:00:00 - 22.03.2019 17:00:00 (WET)Santa Cruz de Tenerife, Spain (60020): wind direction: 16.03.2019 17:00:00 - 22.03.2019 17:00:00 (WET)Santa Cruz de Tenerife, Spain (60020): reduced air pressure: 16.03.2019 17:00:00 - 22.03.2019 17:00:00 (WET)Santa Cruz de Tenerife, Spain (60020): visibility: 16.03.2019 17:00:00 - 22.03.2019 17:00:00 (WET)Santa Cruz de Tenerife, Spain (60020): precipitation: 16.03.2019 17:00:00 - 22.03.2019 17:00:00 (WET)
Date & Time tt [°C] td [°C] ff [km/h] ff [kn] dd ppp [hPa] vv [km] rr [mm]
22.03.2019 17:00:00 21,9 9,8 13 7 NE 1014,4 20 0,0
22.03.2019 16:00:00 22,3 8,8 16 9 NE 1014,5 20 0,0
22.03.2019 15:00:00 21,9 9,1 9 5 NNE 1014,8 20 -
22.03.2019 14:00:00 20,0 9,8 15 8 NE 1016,2 20 0,0
22.03.2019 13:00:00 20,9 9,2 15 8 N 1017,3 20 0,0
22.03.2019 12:00:00 18,8 10,4 13 7 ENE 1017,6 15 -
22.03.2019 11:00:00 18,3 9,4 15 8 NE 1017,8 20 0,0
22.03.2019 10:00:00 17,9 9,0 13 7 NE 1017,5 20 0,0
22.03.2019 09:00:00 17,4 9,0 13 7 NE 1017,1 15 -
22.03.2019 08:00:00 17,2 8,9 13 7 NNE 1016,6 20 0,0
22.03.2019 07:00:00 16,9 9,1 8 4 NNE 1015,7 20 0,0
22.03.2019 06:00:00 16,8 9,2 9 5 NE 1015,6 20 -
22.03.2019 05:00:00 16,8 9,2 8 4 NE 1015,5 20 0,0
22.03.2019 04:00:00 16,9 9,6 8 4 NE 1015,8 20 0,0
22.03.2019 03:00:00 17,1 10,2 8 4 NNE 1016,4 20 -
22.03.2019 02:00:00 17,2 9,6 9 5 NE 1017,1 20 0,0
22.03.2019 01:00:00 17,5 10,1 11 6 NNE 1017,7 20 0,0
22.03.2019 00:00:00 17,6 9,7 13 7 NE 1018,1 20 -
21.03.2019 23:00:00 17,7 10,3 15 8 NNE 1017,9 20 0,0
21.03.2019 22:00:00 17,9 10,8 9 5 NNE 1017,9 20 0,0
21.03.2019 21:00:00 18,0 10,1 15 8 N 1017,4 20 -
21.03.2019 20:00:00 18,3 10,4 11 6 NE 1016,9 19 0,0
21.03.2019 19:00:00 18,9 10,2 11 6 NE 1016,5 20 0,0
21.03.2019 18:00:00 21,0 10,2 9 5 ENE 1015,9 20 -
21.03.2019 17:00:00 21,7 10,2 13 7 ENE 1015,6 20 0,0
21.03.2019 16:00:00 21,6 11,9 16 9 E 1015,8 20 0,0
21.03.2019 15:00:00 20,8 12,0 21 11 E 1016,4 20 -
21.03.2019 14:00:00 21,1 12,5 21 11 E 1016,7 19 0,0
21.03.2019 13:00:00 20,6 12,0 21 11 E 1017,7 19 0,0
21.03.2019 12:00:00 19,3 12,8 18 10 E 1018,2 15 -
21.03.2019 11:00:00 20,7 12,1 18 10 E 1018,6 18 0,0
21.03.2019 10:00:00 20,5 11,7 15 8 E 1017,9 19 0,0
21.03.2019 09:00:00 19,9 11,4 9 5 E 1017,5 20 -
21.03.2019 08:00:00 16,1 10,4 11 6 W 1017,3 18 0,0
21.03.2019 07:00:00 15,7 10,5 8 4 W 1016,8 20 0,0
21.03.2019 06:00:00 15,8 10,1 9 5 W 1016,5 20 -
21.03.2019 05:00:00 16,0 9,9 8 4 W 1016,2 20 0,0
21.03.2019 04:00:00 16,2 9,8 5 3 WNW 1016,4 20 0,0
21.03.2019 03:00:00 16,2 9,8 8 4 W 1016,7 20 -
21.03.2019 02:00:00 16,5 10,6 2 1 W 1017,0 20 0,0
21.03.2019 01:00:00 17,6 10,9 5 3 NNE 1017,3 20 0,0
21.03.2019 00:00:00 17,8 11,4 9 5 NNE 1017,7 20 -
20.03.2019 23:00:00 18,0 11,5 8 4 ENE 1018,4 20 0,0
20.03.2019 22:00:00 18,1 10,9 8 4 NE 1018,3 20 0,0
20.03.2019 21:00:00 18,5 11,1 8 4 ENE 1017,9 20 -
20.03.2019 20:00:00 18,8 11,4 9 5 E 1017,1 20 0,0
20.03.2019 19:00:00 20,2 9,4 11 6 ENE 1016,2 20 0,0
20.03.2019 18:00:00 21,4 10,2 13 7 E 1015,7 20 -
20.03.2019 17:00:00 20,7 12,7 22 12 E 1015,8 20 0,0
20.03.2019 16:00:00 20,9 12,6 21 11 E 1016,0 20 0,0
20.03.2019 15:00:00 21,3 12,7 18 10 E 1016,4 20 -
20.03.2019 14:00:00 21,2 12,6 18 10 E 1016,9 20 0,0
20.03.2019 13:00:00 20,8 12,2 21 11 E 1017,8 20 2,0
20.03.2019 12:00:00 21,6 12,4 16 9 E 1018,4 20 -
20.03.2019 11:00:00 20,5 11,7 16 9 E 1018,6 20 0,0
20.03.2019 10:00:00 20,4 11,3 15 8 E 1018,6 20 0,0
20.03.2019 09:00:00 19,5 10,5 8 4 E 1018,4 20 -
20.03.2019 08:00:00 16,5 10,1 2 1 SSW 1018,2 20 0,0
20.03.2019 07:00:00 15,5 9,6 4 2 W 1017,7 20 0,0
20.03.2019 06:00:00 16,0 9,4 4 2 WNW 1017,2 20 -
20.03.2019 05:00:00 16,4 9,8 8 4 N 1017,2 20 0,0
20.03.2019 04:00:00 16,1 10,0 4 2 NW 1017,6 20 0,0
20.03.2019 03:00:00 16,3 9,5 5 3 NW 1018,0 20 -
20.03.2019 02:00:00 16,5 9,4 4 2 NNW 1018,5 20 0,0
20.03.2019 01:00:00 16,7 9,9 5 3 NNE 1019,0 20 0,0
20.03.2019 00:00:00 16,9 9,3 4 2 N 1020,0 20 -
19.03.2019 23:00:00 17,2 9,6 8 4 NE 1020,3 20 0,0
19.03.2019 22:00:00 17,4 10,0 8 4 NE 1020,2 20 0,0
19.03.2019 21:00:00 17,5 10,1 4 2 NNE 1019,7 20 -
19.03.2019 20:00:00 17,7 9,8 8 4 N 1019,1 20 0,0
19.03.2019 19:00:00 18,4 8,9 11 6 N 1018,7 20 0,0
19.03.2019 18:00:00 20,5 9,1 18 10 N 1018,2 20 -
19.03.2019 17:00:00 22,1 9,9 11 6 NNE 1017,9 20 0,0
19.03.2019 16:00:00 21,8 8,7 15 8 NE 1018,2 20 0,0
19.03.2019 15:00:00 21,5 10,3 11 6 NNE 1019,1 20 -
19.03.2019 14:00:00 21,2 10,4 13 7 NNE 1019,8 20 0,0
19.03.2019 13:00:00 20,8 10,3 15 8 ENE 1020,2 20 0,0
19.03.2019 12:00:00 20,7 10,2 11 6 NE 1020,9 20 -
19.03.2019 11:00:00 20,3 9,5 13 7 NNE 1021,3 20 0,0
19.03.2019 10:00:00 20,4 9,6 13 7 ENE 1021,0 19 0,0
19.03.2019 09:00:00 18,1 10,2 11 6 ENE 1020,8 20 -
19.03.2019 08:00:00 17,4 8,8 8 4 NNE 1020,4 20 0,0
19.03.2019 07:00:00 17,3 9,7 8 4 NNE 1020,3 20 0,0
19.03.2019 06:00:00 17,6 10,2 8 4 N 1019,7 20 -
19.03.2019 05:00:00 17,8 10,7 13 7 N 1019,9 20 0,0
19.03.2019 04:00:00 17,6 12,1 9 5 N 1020,0 19 0,0
19.03.2019 03:00:00 18,2 10,6 11 6 NNE 1020,6 20 -
19.03.2019 02:00:00 18,1 10,0 5 3 N 1021,1 19 0,0
19.03.2019 01:00:00 18,2 10,1 11 6 NNE 1021,5 19 0,0
19.03.2019 00:00:00 18,4 10,7 9 5 NE 1021,7 18 -
18.03.2019 23:00:00 18,4 10,5 8 4 NNE 1021,7 20 0,0
18.03.2019 22:00:00 18,5 9,8 9 5 N 1021,6 20 0,0
18.03.2019 21:00:00 18,5 10,8 15 8 NE 1021,2 19 -
18.03.2019 20:00:00 18,3 10,4 13 7 NNE 1020,8 20 0,0
18.03.2019 19:00:00 18,8 9,6 13 7 N 1020,5 20 0,0
18.03.2019 18:00:00 20,6 10,7 13 7 NNE 1020,4 20 -
18.03.2019 17:00:00 21,4 9,9 13 7 NNE 1020,1 20 0,0
18.03.2019 16:00:00 22,1 9,9 15 8 NE 1020,2 20 0,0
18.03.2019 15:00:00 22,1 10,6 18 10 NE 1020,5 20 -
18.03.2019 14:00:00 22,4 8,9 15 8 NNE 1020,8 20 0,0
18.03.2019 13:00:00 22,3 10,1 11 6 NE 1021,4 20 0,0
18.03.2019 12:00:00 21,3 10,5 15 8 ENE 1022,0 20 -
18.03.2019 11:00:00 21,3 11,3 15 8 E 1022,2 20 0,0
18.03.2019 10:00:00 20,3 10,7 13 7 ENE 1022,2 20 0,0
18.03.2019 09:00:00 19,1 10,6 9 5 ENE 1021,7 20 -
18.03.2019 08:00:00 16,4 10,3 5 3 N 1021,4 20 0,0
18.03.2019 07:00:00 16,3 10,4 4 2 WNW 1021,1 20 0,0
18.03.2019 06:00:00 17,0 10,8 8 4 NE 1020,6 20 -
18.03.2019 05:00:00 17,0 11,3 8 4 NE 1020,3 20 0,0
18.03.2019 04:00:00 16,6 10,2 4 2 W 1020,7 20 0,0
18.03.2019 03:00:00 17,4 11,2 8 4 NE 1021,0 20 -
18.03.2019 02:00:00 17,6 11,4 8 4 ENE 1021,4 20 0,0
18.03.2019 01:00:00 17,7 11,5 5 3 NE 1021,8 20 0,0
18.03.2019 00:00:00 17,9 11,7 5 3 ENE 1022,0 20 -
17.03.2019 23:00:00 17,7 11,0 2 1 S 1022,1 20 0,0
17.03.2019 22:00:00 17,8 9,9 5 3 SW 1022,0 20 0,0
17.03.2019 21:00:00 18,1 9,7 5 3 W 1021,4 20 -
17.03.2019 20:00:00 18,8 9,3 8 4 NNW 1020,4 20 0,0
17.03.2019 19:00:00 20,1 9,3 11 6 NNW 1019,8 20 0,0
17.03.2019 18:00:00 22,2 7,6 5 3 N 1019,5 20 -
17.03.2019 17:00:00 23,1 8,4 9 5 E 1019,4 20 0,0
17.03.2019 16:00:00 24,3 10,2 9 5 W 1019,4 20 0,0
17.03.2019 15:00:00 23,9 9,8 8 4 ENE 1019,8 20 -
17.03.2019 14:00:00 23,6 9,2 9 5 ENE 1020,8 20 0,0
17.03.2019 13:00:00 23,0 10,1 8 4 NE 1021,8 20 0,0
17.03.2019 12:00:00 22,3 10,8 15 8 NNW 1022,8 20 -
17.03.2019 11:00:00 22,1 10,9 15 8 NW 1022,6 20 0,0
17.03.2019 10:00:00 21,3 11,3 16 9 NNW 1022,1 20 0,0
17.03.2019 09:00:00 19,9 11,1 16 9 NNW 1021,9 20 -
17.03.2019 08:00:00 17,8 10,9 8 4 NNW 1021,5 20 0,0
17.03.2019 07:00:00 16,9 10,0 4 2 N 1020,9 20 0,0
17.03.2019 06:00:00 16,5 10,3 8 4 WNW 1020,5 20 -
17.03.2019 05:00:00 16,5 10,1 5 3 W 1020,0 20 0,0
17.03.2019 04:00:00 17,4 10,5 8 4 WNW 1019,8 20 0,0
17.03.2019 03:00:00 17,7 10,8 13 7 W 1019,9 20 -
17.03.2019 02:00:00 18,2 10,8 9 5 W 1020,3 20 0,0
17.03.2019 01:00:00 18,5 10,6 13 7 W 1020,8 20 0,0
17.03.2019 00:00:00 18,6 11,2 18 10 WNW 1021,1 20 -
16.03.2019 23:00:00 18,8 11,1 16 9 W 1021,1 20 0,0
16.03.2019 22:00:00 18,9 11,2 13 7 WNW 1020,9 20 0,0
16.03.2019 21:00:00 19,2 11,7 21 11 W 1020,6 20 -
16.03.2019 20:00:00 20,1 11,3 16 9 WNW 1019,8 20 0,0
16.03.2019 19:00:00 21,1 11,7 18 10 WNW 1019,0 20 0,0
16.03.2019 18:00:00 23,0 14,6 5 3 ENE 1018,6 20 -
16.03.2019 17:00:00 24,3 12,3 13 7 SSW 1018,4 20 0,0

tt = temperature
td = dewpoint
ff = wind speed
dd = wind direction
ppp = reduced air pressure
vv = visibility
rr = precipitation

Next stations